Wind_Speed
26 26 25 25 24 23 21 21 22 23 23 23 23 22 22 22 22 21 20 19 19 18 18 18 18 18 18 18 17 18 18 18 18 18 17 17 17 15 13 14 17 18 16 15 15 17 17 17 15 13 15 15 14 13 12 12 12 12 11 10 10 9 9 9 10 9 9 9 9 9 9 9 8 8 7 7 7 6 6 6 5 5 6 6 7
28 27 27 26 26 26 24 23 24 25 25 25 26 24 24 24 24 24 23 22 21 20 20 20 20 20 20 19 19 18 18 19 18 18 18 18 18 18 15 14 15 17 18 17 18 18 18 19 17 16 17 16 16 15 14 13 12 12 11 10 10 10 9 9 10 9 9 9 9 9 9 9 8 8 7 7 6 6 6 5 5 5 5 5 6
30 28 28 28 28 28 27 26 25 25 25 26 28 27 26 25 25 25 25 24 23 22 21 21 21 22 22 21 20 19 19 19 19 20 19 19 19 19 18 16 16 17 20 21 20 19 20 19 17 17 18 17 16 16 15 15 14 13 12 11 11 11 10 10 10 9 9 9 9 9 9 9 8 8 7 7 7 6 6 5 5 5 5 5 5
31 30 29 30 30 30 29 28 26 25 24 25 27 28 28 27 26 25 25 24 24 23 23 23 23 23 24 23 22 21 20 19 20 20 21 21 20 20 21 20 18 19 21 22 22 20 21 20 19 19 20 19 17 16 16 16 15 14 13 12 12 12 12 11 10 10 9 9 9 9 8 8 8 8 7 7 7 6 6 6 5 5 5 5 5
31 31 31 31 31 31 30 29 27 25 24 24 25 28 29 28 27 26 25 25 24 24 24 25 25 25 25 25 24 23 23 21 21 21 21 22 22 22 22 22 21 20 21 23 24 22 21 22 22 20 20 20 18 18 17 17 17 16 15 14 14 14 13 12 12 11 10 10 10 9 9 9 8 8 8 7 7 7 7 6 6 5 5 5 4
33 32 32 32 31 31 30 29 28 25 23 23 23 25 28 29 28 27 26 26 25 25 25 26 27 27 27 27 26 25 25 24 23 23 22 22 23 23 23 23 23 23 22 23 26 25 24 25 25 22 21 21 20 20 19 18 18 17 17 16 15 15 14 13 12 12 11 11 10 10 10 9 9 8 8 7 7 7 7 6 6 5 5 5 4
34 32 32 32 31 30 30 29 28 26 24 24 23 25 28 29 28 27 26 27 26 26 26 27 27 27 28 28 27 27 26 27 26 25 24 24 24 24 24 24 24 24 24 24 27 28 27 28 28 25 23 22 22 22 21 20 20 19 19 18 17 17 16 14 14 13 12 11 12 11 10 10 9 9 8 8 7 7 7 6 6 6 5 5 5
35 34 33 32 32 31 30 29 28 27 26 26 26 26 28 29 28 28 27 27 27 26 27 27 28 28 28 28 28 28 28 28 27 27 27 26 26 26 26 26 26 25 25 24 27 31 30 30 30 28 25 24 24 24 23 22 22 21 20 19 19 18 17 17 16 16 14 13 14 12 11 11 10 9 9 8 8 7 7 7 6 6 6 5 5
36 35 33 33 33 32 30 29 29 28 27 27 27 27 27 28 27 27 28 28 27 27 27 27 28 28 28 28 29 29 29 29 28 28 28 29 28 28 27 27 27 27 26 26 28 32 33 31 31 31 29 26 26 26 24 24 25 23 22 21 20 19 19 18 17 17 16 14 14 12 11 11 10 10 10 9 9 8 8 7 7 6 6 6 5
36 34 33 34 34 32 31 30 29 28 28 28 28 27 27 28 27 28 28 29 28 27 27 27 27 27 28 29 30 30 30 30 29 27 28 29 30 30 30 30 29 29 28 28 29 32 34 33 33 33 31 29 29 29 27 26 25 24 23 22 21 21 20 19 17 17 17 14 13 12 12 11 11 11 11 11 10 9 9 8 7 7 7 6 6
35 34 35 36 34 32 32 31 30 29 28 28 28 28 28 29 28 28 28 29 28 27 27 26 25 26 27 28 30 31 31 29 28 27 28 29 30 31 32 31 31 31 31 30 30 32 35 36 35 35 35 33 32 33 30 27 26 25 25 24 23 22 22 21 19 19 17 14 13 13 13 13 12 12 12 12 11 10 9 8 8 8 7 7 6
34 34 36 36 35 33 32 31 31 30 29 29 29 29 29 29 28 28 27 27 28 28 26 24 25 26 27 29 30 30 31 30 29 28 28 29 30 32 33 33 32 33 33 32 32 33 35 38 39 38 37 35 34 35 33 30 29 27 26 26 25 24 23 22 21 21 17 14 14 15 15 14 13 14 13 13 12 11 10 9 9 9 8 8 7
34 35 36 36 35 34 32 31 30 30 30 30 29 29 28 28 27 28 27 26 26 27 26 24 22 21 20 24 27 29 29 30 30 30 30 30 31 32 33 33 34 35 36 35 34 34 36 39 41 41 40 38 37 36 35 33 32 30 28 27 26 25 24 24 23 22 19 17 17 17 16 15 15 15 14 13 12 12 11 10 10 9 9 9 8
36 36 37 36 35 33 33 32 31 31 31 30 30 29 28 27 27 27 27 27 25 24 26 24 18 15 12 11 14 18 22 25 27 30 31 32 33 33 34 34 35 36 38 37 36 36 38 40 42 42 42 42 40 38 38 36 34 33 30 28 27 26 25 25 25 24 21 20 19 17 16 17 16 16 15 14 13 13 12 11 11 10 10 9 9
38 38 38 37 36 35 34 33 32 31 31 30 30 29 27 27 28 27 25 25 25 24 25 24 19 16 11 7 4 5 10 15 22 29 32 33 33 33 34 34 35 37 38 37 37 38 39 41 43 44 45 45 43 42 41 39 37 35 33 30 29 27 26 26 27 25 23 23 21 18 18 18 17 17 16 15 14 14 14 12 12 11 10 10 9
40 40 39 38 37 36 35 34 33 32 31 31 30 29 30 29 29 30 27 23 23 24 25 25 24 19 8 2 2 2 4 6 12 22 28 32 33 32 34 35 37 38 38 38 38 39 41 43 44 45 47 46 46 45 44 41 39 38 36 34 32 30 28 28 28 26 25 24 22 19 19 18 18 18 17 17 16 15 15 14 13 12 12 11 10
41 41 40 39 39 37 36 35 34 33 33 32 31 30 32 31 29 31 31 27 24 22 22 22 24 24 15 5 2 2 3 1 2 8 15 23 28 31 33 33 34 36 38 39 40 40 41 43 44 45 46 47 46 46 45 43 41 41 40 37 35 32 30 29 28 27 26 24 22 21 20 19 19 20 19 18 17 16 16 15 14 13 13 12 11
41 42 42 41 40 38 37 36 35 35 34 33 32 31 31 30 30 32 33 31 25 20 20 20 20 23 24 18 11 6 3 1 1 2 5 11 18 25 30 32 31 30 30 33 38 42 43 44 45 46 47 47 47 46 46 45 43 44 43 40 37 34 31 30 29 29 27 25 24 23 22 21 20 21 20 19 18 18 17 16 16 15 14 13 12
43 43 43 42 40 39 38 38 37 36 36 35 34 34 32 30 31 32 30 28 26 22 22 22 20 21 25 25 23 18 12 7 3 1 3 5 9 14 20 27 30 29 25 24 29 34 38 41 44 45 46 46 46 47 46 46 46 46 45 42 40 37 34 31 30 30 28 26 25 24 23 21 21 21 21 20 19 19 18 18 17 16 15 15 14
45 45 43 42 41 40 40 39 38 37 36 36 35 33 33 32 33 31 29 28 27 26 26 24 21 21 22 24 24 22 19 15 11 7 4 3 6 7 11 16 23 27 26 24 23 23 25 28 32 38 43 45 46 47 48 48 48 46 45 44 42 40 37 33 31 30 28 27 27 26 25 22 21 22 21 21 21 20 20 19 18 17 16 16 15
46 45 44 43 42 42 41 40 39 38 37 36 34 33 32 34 35 33 30 29 28 28 28 26 25 23 21 19 20 21 20 18 16 13 8 6 5 5 7 9 11 18 21 21 22 22 23 23 24 30 37 43 47 49 50 50 48 47 46 45 44 42 39 34 31 31 29 28 28 27 27 24 22 22 22 22 22 22 21 20 19 18 18 17 17
46 45 45 44 43 43 42 41 39 38 37 35 34 34 34 35 34 32 30 29 29 28 28 27 26 25 23 20 18 17 15 13 14 14 11 8 7 4 6 8 9 16 22 22 22 24 26 26 25 27 33 38 43 48 50 48 47 48 46 45 44 43 40 36 32 31 30 29 29 28 27 26 23 23 23 23 23 23 23 21 20 20 19 19 18
44 44 45 44 44 43 42 40 39 37 37 36 35 34 34 34 32 31 30 30 29 29 28 27 25 24 24 23 21 20 16 12 14 16 11 8 7 4 7 12 12 17 24 24 23 23 24 26 26 27 31 35 40 44 47 47 47 48 47 45 44 43 42 38 34 32 29 28 30 28 27 26 25 24 25 25 24 24 23 23 22 21 21 21 20
41 43 45 45 44 43 42 40 39 39 38 37 36 35 34 33 32 31 30 29 29 28 27 27 26 25 25 25 24 23 22 20 19 20 17 14 11 5 7 12 10 13 20 21 20 21 21 23 25 27 29 32 38 40 40 44 47 47 46 46 45 43 42 39 35 33 30 28 29 29 27 27 26 26 26 26 25 25 25 24 23 23 22 22 22
41 44 46 47 45 44 43 42 41 41 40 37 36 35 34 33 32 31 29 29 28 27 28 27 26 27 26 26 26 25 25 24 22 21 20 19 14 7 9 12 8 10 15 16 16 19 21 23 25 26 27 30 35 37 35 38 41 44 46 47 45 44 43 41 37 35 31 29 30 30 29 28 27 26 27 26 25 25 25 25 24 24 24 23 23
44 46 47 47 46 46 44 44 43 41 39 38 36 35 34 32 30 30 29 28 27 27 28 27 27 27 26 26 26 26 26 24 23 22 20 18 15 10 8 9 10 10 11 13 14 16 19 22 22 23 25 28 31 34 35 36 37 40 43 44 44 43 43 42 39 36 33 30 29 28 29 30 28 28 27 26 26 26 26 26 26 25 25 25 25
44 45 45 46 47 46 44 44 43 41 39 37 36 34 32 31 30 29 28 27 27 28 28 28 28 27 27 27 26 26 25 24 24 24 23 22 20 18 12 7 7 8 7 9 14 18 22 21 19 21 23 25 28 31 33 36 38 39 40 42 42 42 43 43 40 38 35 30 27 27 29 30 30 30 29 27 27 28 28 28 27 27 26 26 26
41 42 43 45 46 45 44 44 43 42 40 38 36 34 33 31 30 29 28 28 28 29 29 29 28 27 27 27 26 25 24 23 23 24 24 24 23 23 19 13 8 5 4 5 7 13 20 20 19 22 22 23 27 30 31 34 38 40 41 43 43 42 44 44 41 38 36 33 29 28 28 28 29 31 30 28 27 29 30 30 28 28 27 28 28
38 40 41 43 44 44 44 45 44 42 41 39 36 34 33 32 31 30 29 29 28 29 29 28 27 27 26 25 25 24 23 22 23 23 23 24 24 24 24 21 16 8 4 4 4 6 13 17 18 19 20 21 25 28 30 33 37 40 42 43 44 45 45 44 42 38 36 35 34 31 27 24 25 27 28 29 29 30 31 29 28 28 28 28 28
37 38 39 41 42 43 44 44 44 42 41 38 36 34 33 32 31 30 29 28 29 29 28 27 26 25 24 23 23 23 22 21 22 22 21 22 23 24 25 26 24 16 8 6 5 7 10 15 18 19 20 20 22 26 29 32 35 39 41 43 44 45 44 41 41 40 37 35 36 35 31 25 23 23 23 24 27 28 27 27 28 29 29 29 28
37 37 38 40 41 42 43 43 43 42 40 38 36 34 33 32 31 30 29 28 28 28 27 25 24 23 22 22 22 21 21 20 20 20 21 22 24 25 25 26 25 24 19 11 5 5 8 13 18 20 21 21 21 23 26 29 32 36 39 41 42 42 40 39 40 41 38 36 36 36 35 31 27 24 21 20 20 19 18 18 20 22 22 22 22
38 38 39 40 41 41 42 43 42 41 40 38 37 35 33 32 31 30 29 28 28 27 26 24 22 22 21 21 21 20 20 19 20 20 21 22 23 24 25 26 25 25 24 15 6 6 11 15 17 19 20 21 20 20 23 26 29 33 36 37 39 40 38 39 40 40 39 38 37 36 35 33 30 28 27 25 24 23 20 19 20 21 21 20 20
39 39 40 41 41 42 42 42 42 42 41 39 37 35 34 33 31 30 29 29 28 27 24 23 22 22 22 21 21 20 20 19 19 19 20 21 22 23 24 24 24 23 21 16 9 8 12 15 16 16 17 18 18 19 22 25 28 31 32 34 37 38 37 39 40 40 40 40 39 35 33 33 33 31 31 31 30 29 29 29 29 28 28 27 26
39 40 41 41 41 41 40 41 41 41 41 39 37 35 34 33 31 30 30 29 28 26 24 24 23 22 22 21 21 20 19 18 19 20 20 20 20 22 22 21 20 19 17 17 14 10 11 13 13 14 15 16 17 19 21 24 27 29 30 32 36 37 38 39 38 39 41 41 39 35 33 33 34 33 33 33 32 32 31 32 32 31 31 31 30
39 40 41 41 41 40 40 40 41 40 40 39 37 36 35 34 32 31 30 29 28 27 26 25 24 22 21 21 20 19 18 19 20 20 20 20 19 18 18 17 16 16 17 19 19 14 11 12 12 13 15 15 17 17 19 22 25 27 30 32 34 34 33 33 34 36 38 38 36 34 34 35 35 35 34 34 34 34 33 33 33 33 33 33 32
39 40 41 41 40 39 39 40 40 40 40 38 37 36 35 34 33 31 30 29 28 27 27 25 24 22 21 21 20 18 18 19 20 19 19 18 17 16 16 16 16 17 17 19 21 18 13 10 10 12 14 14 15 16 18 21 21 23 26 28 28 27 28 29 31 33 33 32 32 33 34 35 35 36 35 35 36 36 35 35 35 35 34 34 33
39 40 40 39 39 39 39 40 40 40 39 38 37 36 35 34 32 31 30 29 29 28 26 25 24 22 22 21 20 19 20 20 20 20 19 18 18 17 17 17 17 18 19 19 19 17 14 11 11 12 13 12 13 15 17 19 20 19 20 20 21 22 25 27 27 28 29 30 30 31 32 33 34 34 35 36 36 36 35 35 35 35 34 34 33
38 38 38 39 39 39 39 39 40 40 39 37 37 36 34 33 31 30 29 29 28 27 25 24 23 23 22 20 20 20 20 20 20 19 18 18 19 18 18 17 17 19 20 18 17 15 14 14 14 14 14 13 13 14 15 18 19 19 17 17 18 21 23 24 25 26 27 28 28 29 30 31 32 32 32 33 34 34 34 34 34 33 32 32 31
38 38 37 38 38 38 39 39 39 39 37 36 36 35 33 32 31 30 29 28 26 24 23 23 23 22 21 20 20 21 20 20 20 19 18 18 18 18 17 17 18 20 19 17 15 14 14 15 15 14 14 14 13 13 13 15 16 17 17 17 18 20 22 23 25 25 26 26 27 28 28 29 29 29 30 30 31 32 31 31 31 31 30 30 30
38 38 38 38 38 37 38 38 38 37 37 36 35 34 33 32 31 30 29 26 24 23 22 22 22 20 19 19 19 20 20 20 20 19 19 19 18 17 17 17 19 20 19 17 15 14 15 16 15 15 15 14 14 12 11 13 15 16 18 19 19 21 23 23 23 23 24 25 25 26 26 27 27 27 27 28 28 28 28 28 28 28 28 28 28
37 37 37 37 37 37 36 37 37 36 36 36 35 34 33 32 31 29 27 25 23 23 23 21 19 19 19 19 19 19 19 18 18 18 19 19 18 18 18 18 19 21 19 17 16 16 17 16 14 14 14 14 15 14 14 17 19 19 19 20 19 17 18 19 19 20 21 22 23 23 24 24 24 24 24 24 24 24 24 25 25 26 26 26 26
35 35 36 36 37 37 36 35 35 35 36 36 35 34 33 31 30 28 25 24 24 24 22 20 19 19 19 19 19 19 18 18 17 17 19 19 17 17 17 17 18 21 21 19 19 19 19 18 17 16 15 16 19 21 20 20 20 18 17 19 18 15 12 12 13 16 19 20 20 21 21 21 21 21 21 21 22 22 23 23 22 21 21 21 21
34 35 35 35 36 36 37 36 35 35 35 34 33 33 31 30 28 27 25 25 25 24 22 19 18 18 17 18 18 18 18 18 17 17 17 18 18 17 17 16 17 20 21 20 20 21 21 20 19 20 19 19 22 24 22 19 18 17 16 17 18 16 13 10 8 10 14 17 18 18 18 18 17 17 17 18 17 17 17 16 15 14 14 14 14
33 33 34 35 35 36 36 36 35 35 34 33 32 31 29 28 27 26 26 25 25 25 22 19 17 16 16 17 18 18 18 18 18 17 16 17 17 17 17 16 15 18 20 19 19 21 23 22 21 22 23 21 21 23 23 20 18 17 15 14 16 16 16 15 11 6 7 10 13 14 12 11 10 9 10 10 10 10 10 9 10 10 10 11 12
31 32 33 34 35 35 35 34 34 34 33 32 31 29 27 27 26 26 25 25 24 24 24 22 19 18 18 18 18 19 18 17 18 18 18 17 17 16 17 16 16 18 20 20 18 17 20 23 24 25 26 23 20 21 22 20 18 17 16 16 16 16 17 16 13 9 5 6 9 9 7 6 5 5 6 7 7 7 7 7 8 9 10 11 12
30 31 32 32 33 34 34 33 33 32 32 31 29 27 26 26 27 27 26 25 24 24 24 22 21 21 21 20 20 19 18 17 18 19 19 19 18 17 17 18 18 19 19 20 20 19 18 20 22 22 22 20 19 17 15 16 16 16 16 16 15 16 16 14 11 9 7 7 7 6 5 5 5 5 6 7 6 6 6 6 7 8 10 11 12
30 30 31 32 32 32 32 31 31 30 30 29 26 25 26 27 28 27 27 25 24 24 23 22 21 21 20 19 19 18 17 17 17 18 19 19 19 18 19 19 19 19 19 19 21 20 19 19 19 18 16 14 14 13 10 11 13 13 13 11 10 12 14 12 9 8 8 8 8 6 4 5 5 5 6 6 4 4 5 6 7 9 10 11 11
29 29 29 30 30 30 30 29 29 28 28 27 25 26 27 28 28 27 26 26 25 24 23 21 20 18 17 17 17 17 16 16 16 17 17 17 18 18 19 19 19 19 18 18 19 19 18 18 18 17 14 12 11 9 7 7 10 12 11 9 8 11 12 11 8 8 9 9 9 8 6 6 6 5 5 4 3 4 6 7 8 9 10 10 10
26 26 27 27 28 28 28 28 28 27 26 26 26 27 26 27 28 27 26 25 25 23 22 20 18 17 16 17 16 16 16 16 16 17 17 18 18 18 19 19 19 19 18 19 19 20 19 19 18 16 13 12 10 8 7 7 8 10 12 12 12 14 14 11 7 9 10 10 10 11 9 7 7 6 4 3 3 4 6 7 8 8 7 7 7
25 25 25 25 25 25 26 27 28 27 27 26 27 28 27 27 29 28 26 25 24 23 22 21 19 18 17 17 16 16 17 17 16 17 18 19 19 19 19 19 18 19 19 19 20 20 20 18 17 15 12 11 10 9 9 9 9 9 11 12 13 16 16 12 9 9 9 10 11 12 10 7 7 5 3 1 1 3 4 5 5 4 3 2 3
25 24 24 23 23 23 24 26 27 27 26 26 28 29 28 28 29 29 28 26 24 24 23 22 20 20 19 17 17 17 17 16 16 16 17 18 19 19 19 19 19 20 21 21 21 21 20 18 16 15 13 12 12 11 10 9 9 9 10 10 12 15 16 14 11 8 5 6 11 13 10 8 7 5 3 2 1 3 4 4 4 3 4 4 4
Wind_Direction
225 224 221 222 225 226 226 229 233 233 229 228 228 226 226 225 224 224 225 227 228 230 232 235 237 238 236 236 239 243 244 243 238 236 238 241 247 254 257 251 247 241 215 190 194 197 193 193 190 191 195 193 193 193 195 194 193 192 187 185 185 182 180 176 172 169 169 168 165 161 155 152 149 146 143 140 139 134 127 124 120 119 115 112 108
223 226 224 224 227 227 225 227 232 234 232 231 230 228 228 227 226 226 226 227 230 232 234 236 238 240 241 241 240 243 245 245 244 241 240 241 243 247 252 254 250 244 229 206 199 200 196 200 199 192 194 197 196 194 193 194 196 196 192 188 189 188 186 184 181 177 175 175 174 171 166 160 157 155 150 148 148 142 136 132 126 123 118 114 114
222 224 226 227 228 230 228 226 230 236 237 236 233 229 229 230 229 230 229 229 231 233 235 237 240 242 243 244 243 243 244 245 246 246 245 245 245 246 246 248 247 246 237 214 202 204 201 204 201 190 194 198 197 195 192 192 196 197 195 191 191 192 192 192 191 186 182 182 182 179 174 168 164 163 158 157 156 149 144 141 134 129 125 119 116
221 222 225 227 228 229 230 230 232 235 240 243 239 232 231 232 232 232 233 234 234 235 237 238 241 243 244 246 247 245 244 244 245 246 248 249 248 249 247 246 244 245 241 221 208 207 206 206 202 193 195 197 197 199 196 193 194 194 194 196 196 194 194 196 198 195 191 189 190 187 183 176 171 170 169 164 162 159 153 149 146 139 132 127 121
225 225 223 226 228 228 229 232 234 234 239 245 244 236 231 230 231 231 232 233 234 236 238 238 240 243 245 246 248 249 248 245 244 245 247 250 251 251 249 248 245 244 244 231 218 211 209 211 207 197 195 196 196 199 200 198 195 193 194 198 201 199 197 198 199 197 196 197 197 194 192 188 180 179 180 175 170 168 162 157 155 148 142 138 131
228 226 223 224 226 226 228 231 233 234 237 241 243 240 234 231 230 230 231 232 233 235 236 238 240 241 243 246 248 250 251 249 248 246 246 249 252 251 250 250 249 245 242 235 227 218 211 215 212 202 197 197 196 198 200 202 199 196 197 198 199 201 200 200 199 198 198 200 202 199 198 196 190 187 187 185 181 176 171 165 161 157 156 151 142
227 224 222 222 223 224 227 229 232 235 237 237 238 241 239 235 233 231 232 234 234 235 236 239 242 243 243 245 247 248 250 252 252 250 247 247 249 251 251 250 251 249 244 236 230 223 215 217 215 205 202 200 199 200 198 201 203 199 200 200 200 200 200 201 199 200 200 202 207 204 199 200 198 195 193 195 192 186 180 173 170 166 167 162 151
224 223 222 224 225 226 228 233 236 238 239 237 234 237 237 234 233 233 233 233 234 234 235 239 243 246 248 247 247 247 247 249 252 253 252 249 247 248 250 250 251 250 249 242 232 225 219 220 216 208 206 203 201 203 199 201 203 200 200 201 201 201 201 202 200 202 201 204 211 205 201 206 204 200 199 199 199 197 192 182 179 175 175 171 163
222 223 223 225 226 228 230 233 235 236 236 235 235 236 235 233 234 236 235 233 233 232 233 237 240 246 251 252 251 249 247 248 251 253 255 255 252 249 249 250 252 251 250 245 237 228 222 221 218 214 213 208 203 204 201 201 204 202 200 199 201 202 202 203 202 203 204 207 211 205 204 208 207 207 206 204 202 203 202 194 189 186 183 181 174
223 222 222 222 222 224 228 228 229 230 231 234 236 237 236 237 236 236 236 232 231 231 232 234 238 243 247 251 253 253 252 251 251 252 254 257 257 255 252 250 251 252 251 246 240 233 227 224 221 220 219 213 208 206 204 204 205 204 201 199 201 203 204 203 200 201 206 211 208 206 210 209 208 212 211 208 205 205 205 201 198 195 193 191 185
223 221 220 221 221 223 226 227 229 230 231 233 235 235 234 234 234 235 234 233 232 233 233 236 242 246 246 247 252 252 252 251 250 251 254 255 257 258 257 254 252 252 252 249 243 236 232 228 223 222 221 217 213 210 209 206 205 206 203 201 202 203 204 203 201 197 199 209 205 204 211 210 210 214 214 211 209 208 207 203 203 202 201 201 196
224 223 223 224 225 226 227 228 230 230 229 229 230 230 230 229 231 232 231 232 235 236 237 240 244 248 247 247 250 251 251 250 249 250 254 256 256 256 256 255 255 253 252 250 245 238 234 231 224 221 220 218 216 214 212 210 208 209 207 204 202 203 204 203 203 198 198 207 201 201 211 212 212 214 214 214 210 211 208 206 207 206 206 206 203
227 227 226 227 226 226 225 224 225 225 225 225 226 228 229 231 233 233 231 231 232 234 237 239 239 240 244 245 244 244 246 247 248 248 252 255 255 255 255 253 253 253 251 249 245 239 234 231 226 222 220 218 216 215 215 214 211 210 210 210 205 203 204 204 204 201 200 203 198 202 213 212 214 216 214 213 212 212 210 209 211 208 208 208 206
230 228 227 226 225 224 222 220 219 221 222 222 225 228 230 231 231 230 230 230 231 234 235 234 230 229 234 243 244 243 245 246 247 247 246 247 247 249 252 252 250 251 250 246 242 238 234 231 227 223 221 219 218 216 216 215 213 211 211 213 210 206 206 205 205 202 199 202 202 206 210 209 213 217 215 213 212 212 211 211 212 211 212 211 209
230 228 226 225 224 223 221 220 218 218 218 218 221 224 226 227 228 229 229 230 233 235 233 231 229 228 231 241 237 243 252 245 243 244 242 240 240 241 245 248 250 251 248 243 239 236 233 231 227 225 223 222 220 217 216 215 214 213 211 212 212 211 211 210 207 204 201 203 204 203 207 209 213 216 216 214 213 213 211 211 213 213 214 214 213
229 227 225 225 224 223 221 220 219 217 217 216 217 221 224 224 226 229 228 226 228 231 235 236 232 226 219 216 160 193 253 236 235 244 243 239 238 239 241 243 246 247 244 240 238 235 233 230 227 225 224 222 221 219 217 215 214 214 213 214 213 211 213 213 209 206 203 201 202 201 205 209 211 216 217 214 214 213 212 211 213 214 214 216 217
228 227 226 225 225 224 223 222 220 217 217 217 218 220 219 218 223 228 227 223 221 223 231 235 233 228 218 196 135 181 221 178 235 256 245 239 240 241 240 241 243 243 241 238 237 236 233 230 227 224 223 222 220 220 218 216 215 215 216 216 215 212 213 215 212 209 206 201 202 201 202 207 211 215 217 215 215 214 213 212 212 214 215 216 217
227 227 227 226 225 225 225 225 223 220 217 216 217 217 217 220 223 223 220 218 216 215 222 228 231 232 227 226 240 242 215 137 88 292 266 246 245 243 241 241 243 245 244 240 237 236 233 229 227 225 223 220 219 220 220 218 217 217 216 215 217 215 215 217 215 213 209 201 201 200 201 206 211 216 217 216 216 216 215 212 211 214 215 216 218
226 227 226 225 225 226 226 226 225 223 219 217 216 217 221 224 221 216 216 218 219 220 226 227 227 234 236 238 247 250 246 242 218 230 302 267 251 249 247 244 243 246 249 246 241 238 234 229 226 224 223 220 219 219 219 220 219 218 217 216 216 215 216 218 216 215 212 203 200 199 198 203 209 216 218 217 217 218 218 214 211 214 215 217 217
226 225 224 224 224 224 225 224 224 224 222 221 220 221 222 222 222 225 229 229 228 228 228 226 223 231 237 238 242 245 247 247 240 236 244 268 273 270 263 252 245 246 249 254 253 247 244 239 232 228 225 222 220 219 220 221 219 218 218 217 215 215 215 217 217 216 211 206 204 200 198 201 206 215 219 218 219 221 221 218 214 215 217 219 219
224 224 223 223 223 224 224 224 223 223 223 224 224 223 222 222 225 228 230 230 229 229 230 229 229 232 234 233 234 238 243 245 244 239 230 242 262 261 264 264 260 258 257 259 259 255 261 267 258 245 235 227 223 219 219 219 218 216 217 217 215 215 216 215 216 216 211 208 207 202 202 202 205 213 218 219 221 222 222 221 218 218 219 221 220
221 222 223 223 223 225 224 223 223 223 223 223 222 222 222 224 226 228 227 226 225 226 230 234 234 235 234 229 225 224 229 236 237 235 230 235 238 225 251 264 274 275 273 272 268 267 272 276 272 260 248 238 229 221 217 216 217 217 216 216 215 216 218 216 215 216 212 210 208 204 203 203 206 211 214 217 220 223 224 222 221 221 223 224 222
218 218 220 222 223 224 223 222 222 222 222 221 220 221 222 224 226 227 226 225 225 227 230 232 231 233 233 229 225 220 216 217 221 224 220 224 237 228 250 260 264 268 275 280 277 276 276 274 271 263 254 246 235 226 218 216 219 219 217 218 216 215 218 218 217 216 213 211 211 207 202 202 206 208 211 216 219 221 224 223 222 221 223 225 223
216 216 217 219 220 220 220 220 220 221 220 219 220 221 222 224 224 225 226 226 228 228 228 228 227 229 231 232 233 231 228 227 225 226 226 231 239 235 243 256 260 260 270 281 281 275 271 269 269 263 255 247 236 230 223 219 219 219 219 221 219 217 218 218 218 217 215 215 214 211 206 204 207 209 211 214 217 220 223 223 222 222 223 225 224
213 214 215 216 216 217 218 219 219 220 220 219 220 221 222 223 223 224 225 225 226 227 228 229 229 231 233 234 236 237 237 238 237 235 236 236 235 233 241 245 248 257 267 275 279 279 272 267 266 261 254 246 237 233 230 223 219 215 217 221 220 218 219 220 218 216 215 219 218 214 212 210 209 211 213 215 216 220 223 225 225 223 224 226 226
212 213 214 214 215 217 218 219 220 221 220 220 220 221 221 222 222 223 225 226 227 229 230 231 232 233 234 235 236 237 241 243 244 243 242 239 231 229 241 247 247 251 260 265 266 271 270 266 265 260 253 246 239 237 235 230 221 215 217 221 220 220 220 219 218 215 216 222 222 217 215 215 215 215 215 216 217 220 223 226 227 225 226 230 230
213 213 213 213 214 216 217 219 221 221 220 219 219 220 221 221 223 225 227 228 228 229 230 230 231 231 232 235 237 240 243 245 246 247 246 244 241 239 237 245 258 249 243 253 254 257 262 266 268 265 257 249 243 239 236 231 223 218 221 224 223 223 223 221 218 216 217 222 224 223 222 221 222 221 220 218 219 221 224 227 228 228 228 231 233
213 213 212 213 214 214 216 218 220 220 218 218 219 220 220 221 223 225 226 227 226 227 228 227 229 231 233 236 238 240 243 245 246 248 248 248 248 247 240 235 247 258 235 240 250 258 263 266 269 268 262 253 246 239 234 229 223 219 223 226 227 226 225 222 221 218 218 220 223 226 227 226 226 227 228 227 225 224 226 227 229 231 232 235 237
213 212 211 212 213 214 215 217 217 218 217 217 219 220 220 221 223 225 224 224 224 225 226 227 229 231 233 235 236 240 244 245 246 247 248 249 248 248 245 239 240 249 256 251 235 244 262 266 267 270 267 257 248 241 234 229 224 221 222 225 228 229 225 221 221 220 219 220 223 227 229 229 232 235 234 234 234 234 233 231 232 233 235 238 240
212 212 211 211 213 213 214 214 215 215 215 216 218 218 218 220 223 224 224 223 224 225 226 226 228 229 231 234 236 240 243 245 246 248 249 250 250 248 247 245 243 242 245 261 245 226 252 266 268 273 273 262 250 241 235 231 227 225 223 223 225 225 222 221 222 221 220 222 224 228 230 229 234 241 241 240 242 245 245 243 243 243 244 246 247
211 211 210 211 211 212 212 212 212 212 213 215 215 215 216 220 221 222 222 223 224 225 224 224 226 228 230 234 236 239 243 245 248 251 252 252 251 250 249 249 246 243 242 249 258 236 244 265 273 276 275 265 252 240 233 231 228 227 226 225 225 223 221 222 224 223 223 224 225 228 232 232 235 243 248 252 255 259 259 256 257 260 261 263 263
211 211 211 212 212 211 211 211 210 210 211 212 213 213 216 219 219 220 221 221 222 223 223 223 226 229 232 235 237 240 245 249 251 254 253 252 251 251 251 249 247 247 244 241 252 259 255 265 275 277 270 260 249 238 231 227 226 225 225 226 225 222 221 223 225 225 226 227 226 227 232 235 239 244 249 256 263 268 271 273 276 279 281 287 289
211 211 212 213 213 212 210 209 209 209 209 210 211 212 214 216 218 219 220 220 220 221 222 223 226 230 233 236 241 247 249 250 250 247 245 245 247 249 250 248 246 246 244 241 246 261 262 262 266 267 265 258 248 239 231 224 222 222 222 222 221 219 221 224 226 226 227 227 228 229 232 236 241 245 248 254 261 268 273 275 279 282 285 289 293
211 211 212 213 213 212 210 209 209 208 208 209 209 211 213 214 215 217 218 217 218 220 221 224 227 231 235 240 246 249 247 244 243 241 240 242 244 245 245 242 243 246 249 248 246 249 255 255 254 258 261 258 250 241 232 225 223 218 216 218 218 218 221 224 224 225 227 229 230 231 234 238 242 245 248 251 258 264 269 272 276 280 283 286 289
211 212 213 213 213 211 210 209 208 207 207 207 208 210 212 213 213 214 215 216 219 221 223 227 230 233 237 240 241 239 237 238 238 235 236 239 239 241 243 244 249 256 259 255 246 239 242 247 252 258 258 254 248 240 231 227 223 215 212 216 219 219 221 224 225 226 228 231 232 233 236 239 243 246 248 251 255 260 265 268 271 276 279 281 284
211 212 212 213 212 210 208 208 207 205 205 205 207 209 212 214 215 215 215 218 222 225 227 230 233 234 232 231 232 232 231 231 231 230 232 237 240 242 246 249 250 253 254 251 243 235 232 237 247 252 250 246 242 235 227 223 219 215 215 219 222 223 224 226 226 227 230 233 234 234 237 240 243 247 250 252 255 259 263 267 269 272 276 280 282
210 210 210 210 209 208 208 207 205 204 204 204 205 208 211 214 215 217 219 222 224 226 230 233 234 230 226 227 229 229 227 227 230 233 234 236 238 239 241 243 245 246 245 242 237 231 230 234 240 242 241 236 233 231 225 219 215 213 217 224 225 223 224 227 227 228 231 234 235 237 240 243 246 249 252 254 257 260 264 267 269 272 275 279 282
209 209 208 208 208 208 208 206 204 202 202 203 205 208 210 211 213 217 220 223 225 228 230 230 228 226 225 226 227 226 226 227 230 230 230 232 234 234 235 237 240 240 236 231 228 227 230 235 238 239 238 233 227 226 222 218 216 212 211 216 221 222 225 227 228 230 232 235 238 241 243 246 249 252 254 256 259 263 266 268 271 274 277 280 283
208 208 207 207 208 208 207 204 202 201 200 202 205 207 208 210 212 215 219 222 225 228 227 224 223 226 228 226 225 226 227 228 229 229 229 230 232 232 231 232 235 235 229 224 222 223 222 223 226 229 231 228 222 220 217 211 212 215 212 209 213 218 222 226 228 231 235 239 242 244 247 249 251 254 256 259 262 265 268 271 274 276 278 280 282
208 208 207 206 207 206 205 203 201 201 201 201 203 205 206 209 212 216 219 220 221 221 221 223 224 224 225 225 225 226 226 226 227 227 229 229 228 228 228 229 232 230 223 217 213 213 213 211 211 213 214 215 215 213 208 200 201 213 218 216 217 220 222 225 229 232 236 240 243 247 250 252 254 257 259 262 265 268 270 273 275 277 279 281 282
208 209 208 207 204 201 201 201 200 200 201 202 203 205 207 210 213 216 217 215 215 214 215 220 223 221 221 224 226 225 226 228 229 227 228 230 227 224 223 225 228 226 220 211 203 201 203 201 198 196 194 197 204 203 202 203 207 214 217 216 219 224 225 228 232 236 238 241 244 247 250 254 257 259 262 265 268 270 273 274 277 279 280 280 280
207 207 206 204 202 199 197 197 198 199 200 202 206 209 211 212 214 213 211 210 211 212 213 216 218 219 220 223 225 226 226 227 231 230 229 228 226 223 220 222 226 225 216 205 198 196 196 193 190 187 183 190 203 206 207 209 212 216 214 211 214 217 220 227 236 240 239 240 243 246 250 254 257 260 263 266 268 271 272 272 274 276 274 275 276
205 205 203 201 199 198 197 196 197 198 200 204 208 210 213 215 214 208 205 208 210 211 213 212 211 215 219 223 225 227 226 225 228 231 228 225 224 223 222 224 231 230 219 207 199 197 196 195 194 193 194 201 207 208 208 210 212 213 213 212 210 208 205 208 221 236 237 236 239 243 247 251 254 256 259 262 264 266 267 266 268 272 275 278 283
202 201 200 198 197 197 196 195 196 198 202 206 209 211 214 215 210 205 204 207 209 211 212 211 208 208 214 220 223 225 227 227 227 228 225 220 219 221 224 229 235 238 232 222 211 203 200 198 197 201 207 211 212 211 210 211 211 209 210 212 211 208 208 209 210 216 225 221 222 228 234 237 239 240 244 251 255 259 262 267 273 281 285 286 289
199 198 197 197 196 195 195 195 196 200 204 207 210 213 214 209 204 204 206 206 206 209 211 212 212 211 213 218 222 224 227 228 227 226 223 220 218 218 224 230 235 238 237 234 230 220 211 207 205 210 215 216 220 223 219 215 211 204 202 206 210 211 213 215 214 209 196 183 189 198 199 198 202 207 221 238 250 260 271 278 284 287 289 290 291
195 194 194 195 195 195 196 197 199 203 206 209 212 212 207 201 201 205 207 206 205 209 211 212 215 218 220 223 227 228 229 228 227 224 222 220 218 217 222 228 232 234 232 229 229 228 225 220 219 222 224 224 230 237 233 224 220 215 210 210 212 212 212 212 211 207 197 179 173 177 177 185 199 213 230 243 254 266 274 282 288 292 295 295 296
195 195 195 195 195 196 197 199 201 205 208 211 211 206 201 200 202 207 210 209 209 212 214 216 219 222 223 227 232 233 229 227 226 222 221 221 220 219 222 226 229 230 228 225 224 226 229 231 233 234 233 233 240 249 249 237 229 226 223 219 217 212 205 198 196 197 195 189 185 186 185 190 203 219 235 247 259 274 283 293 298 298 300 302 304
197 197 197 197 197 197 198 200 202 205 210 210 204 200 201 201 203 209 211 210 210 212 214 217 219 219 221 226 228 229 227 225 221 217 217 220 221 221 223 226 226 224 223 223 223 225 230 234 236 237 237 240 243 245 245 234 223 221 216 203 196 194 184 174 177 188 193 195 196 196 192 194 206 219 229 243 264 287 299 303 302 303 305 307 308
197 198 199 199 199 199 198 199 202 205 209 207 200 199 201 201 203 209 210 207 208 210 211 214 214 213 218 221 220 220 222 222 217 212 212 216 220 222 222 221 219 216 216 218 218 221 226 231 233 235 237 239 235 223 214 208 207 210 204 191 187 186 177 166 172 189 194 198 199 197 196 199 206 213 224 254 286 300 309 310 307 307 310 310 306
201 202 202 201 201 201 200 202 205 207 208 204 198 197 201 202 203 208 209 206 205 207 209 210 211 216 219 216 214 218 220 218 215 212 213 216 219 220 217 213 210 209 209 211 211 211 214 219 222 224 226 225 217 208 203 203 204 208 205 200 196 191 185 180 176 179 192 208 203 194 192 196 197 200 207 234 328 339 338 331 324 322 327 330 317
205 205 204 202 201 202 204 206 207 207 207 202 195 196 200 202 203 207 208 206 203 204 206 204 207 217 218 209 210 218 217 212 212 211 212 216 219 219 217 212 210 212 211 208 207 206 205 208 211 213 213 208 200 196 195 195 198 202 203 203 201 197 193 186 174 163 180 216 204 193 193 193 191 194 193 164 70 29 27 28 24 25 45 57 49
Height
815 816 818 819 821 823 824 825 826 828 829 830 831 832 833 834 835 836 837 837 839 840 841 842 843 844 845 846 847 848 848 849 850 850 851 852 852 853 853 854 854 855 855 855 856 858 859 859 860 862 862 863 864 865 867 867 868 869 869 870 871 871 872 872 872 872 872 873 873 873 873 873 874 875 875 876 876 877 877 878 878 879 879 878 878
813 814 815 817 818 820 821 823 824 825 827 828 829 830 831 832 833 834 835 836 836 838 839 841 842 843 844 845 846 847 847 848 849 849 850 851 851 852 853 853 853 854 854 855 855 857 857 857 859 860 860 862 863 864 865 866 867 868 869 870 871 871 872 872 872 872 872 873 873 873 874 874 874 874 875 876 876 877 877 877 878 879 879 879 879
811 812 813 814 816 817 819 820 822 823 825 826 827 828 829 830 831 832 833 834 835 836 837 839 840 841 842 843 844 845 846 847 847 848 848 849 850 851 852 852 853 853 853 854 855 856 856 856 857 858 859 861 862 863 864 865 867 868 869 870 870 871 872 872 873 873 873 873 873 874 874 874 875 875 875 876 876 876 877 878 878 879 879 880 879
808 809 811 812 813 814 816 817 819 821 822 824 825 826 827 828 829 830 831 832 833 834 835 837 838 839 840 841 842 843 844 845 846 846 847 848 849 850 850 851 852 852 852 853 854 854 855 856 856 857 858 860 861 863 864 864 865 866 868 869 870 870 871 872 872 873 873 874 874 874 875 875 875 876 876 876 876 876 877 878 878 879 879 880 880
805 806 808 809 811 812 813 814 816 818 820 822 823 824 825 827 828 829 830 830 831 832 833 835 836 837 838 839 840 841 842 844 844 844 845 846 847 848 849 849 850 851 851 852 852 853 854 855 855 856 857 857 859 862 863 864 864 865 866 868 869 870 870 870 871 872 873 874 874 874 875 875 875 876 876 876 876 877 877 877 878 879 879 880 880
802 803 805 806 808 809 810 811 813 815 818 820 821 822 824 825 826 827 828 828 829 830 831 832 833 835 836 838 839 839 840 841 842 843 843 844 845 846 847 847 848 849 850 851 851 852 852 853 854 855 856 856 857 859 861 863 863 863 864 865 868 869 869 870 870 871 872 873 874 874 875 875 875 876 877 877 877 877 877 877 878 878 879 880 880
799 801 802 804 805 806 807 808 810 812 815 817 819 820 821 822 823 824 825 826 827 828 829 830 831 832 834 835 837 838 839 839 840 840 841 842 842 843 844 845 846 847 848 849 850 850 851 851 852 853 854 855 856 857 858 860 861 862 862 864 866 867 868 869 870 870 871 872 873 874 874 874 875 876 877 877 878 878 877 877 877 878 879 879 880
796 798 799 801 802 803 804 806 808 810 812 814 816 817 818 819 821 822 823 824 825 826 827 828 829 830 832 833 834 835 836 837 837 838 838 839 840 841 842 843 844 845 846 847 848 848 849 850 851 852 852 853 854 855 856 857 859 859 860 862 864 865 866 867 868 869 869 871 872 873 873 874 875 876 877 877 878 878 878 878 877 878 878 879 879
793 795 796 798 799 801 802 804 805 807 809 811 812 814 815 817 818 820 821 821 822 823 824 826 827 828 830 831 832 832 833 834 835 836 836 837 838 839 839 840 841 842 844 845 846 846 847 848 849 849 850 850 851 853 853 854 856 857 858 859 861 862 864 865 867 867 868 869 871 872 873 874 875 876 876 877 877 878 878 878 878 878 878 878 879
789 792 794 795 796 798 800 801 803 804 806 808 809 811 813 814 816 817 818 819 819 821 822 823 825 826 828 829 830 830 830 831 832 834 834 835 835 836 837 838 839 840 841 842 843 844 844 846 847 848 848 848 848 850 851 852 855 856 856 857 859 860 862 863 865 866 866 868 870 871 873 874 874 875 876 876 877 877 877 877 878 878 878 878 878
786 789 791 792 793 795 797 799 800 802 803 805 806 808 810 811 813 814 816 816 817 818 820 821 823 824 825 826 827 828 828 829 830 831 832 832 833 833 834 836 837 837 838 839 840 841 842 842 843 844 845 846 846 847 849 851 853 854 855 856 856 857 860 861 862 863 864 866 868 870 872 873 874 874 875 875 876 877 877 877 877 877 877 878 878
784 785 787 789 790 792 794 796 797 799 800 801 803 804 807 808 810 812 813 814 815 816 818 820 821 822 823 824 825 825 825 826 826 827 828 829 830 831 832 833 834 834 835 836 836 837 838 839 839 840 841 843 844 846 847 848 850 852 852 853 854 855 857 859 860 861 861 863 866 868 870 871 872 873 874 874 875 875 876 876 876 876 877 877 877
781 782 784 785 787 789 791 793 794 796 797 798 800 802 804 806 808 810 811 812 813 814 816 818 819 820 821 821 821 821 822 822 823 823 824 826 827 828 829 830 830 830 831 832 832 833 834 835 836 837 838 840 841 844 845 845 847 849 850 851 852 853 854 856 858 858 859 861 864 866 868 870 871 872 873 873 873 874 875 875 876 876 876 876 877
777 779 780 781 783 785 787 789 791 793 794 796 798 799 801 804 806 807 808 809 810 812 814 816 816 817 819 819 819 819 819 819 820 820 821 822 823 824 825 826 826 826 827 827 828 830 831 831 833 834 835 836 837 840 842 843 844 846 849 850 851 851 852 853 855 856 856 858 861 864 867 868 869 871 872 872 872 872 873 874 875 875 875 875 876
773 775 776 777 779 781 783 785 788 790 792 794 795 796 798 801 803 804 806 807 808 809 811 812 813 815 817 818 817 817 817 817 817 817 817 818 819 820 821 821 822 822 823 824 825 826 827 828 829 830 831 832 833 835 837 839 841 844 846 848 849 849 851 851 852 854 853 854 857 861 864 866 867 870 870 870 871 871 871 872 873 874 874 875 875
769 770 772 774 775 777 779 781 784 787 789 791 791 793 795 797 799 801 803 804 805 806 808 809 811 813 815 815 816 817 816 814 814 813 814 815 816 817 818 818 818 819 819 820 821 822 823 824 825 826 827 828 830 831 833 834 837 840 843 844 845 846 848 849 850 852 852 852 854 857 861 863 866 867 868 868 869 869 869 870 871 872 873 874 874
765 767 769 771 772 773 775 777 780 783 785 787 788 790 791 793 796 798 800 801 802 804 805 807 808 809 811 812 814 815 813 812 812 812 811 812 813 814 815 815 816 816 816 816 817 818 819 820 821 822 823 824 826 828 829 831 833 836 839 841 843 844 845 848 848 849 850 850 851 854 857 861 863 865 866 867 867 867 868 868 869 870 871 872 873
762 764 766 767 769 770 772 774 776 779 781 784 785 786 788 790 793 794 796 798 800 801 802 804 805 806 807 808 809 810 810 811 813 812 811 810 810 811 812 813 814 814 814 814 814 814 815 816 816 818 819 819 821 824 826 828 829 831 834 838 841 842 843 845 846 847 848 848 849 852 854 858 861 863 864 865 865 866 866 866 867 868 869 870 871
757 759 762 763 766 768 769 770 772 775 777 779 781 783 785 787 789 791 793 795 797 798 799 801 803 804 805 805 806 807 808 809 811 812 812 810 808 809 810 810 811 812 812 813 812 812 812 812 813 814 815 816 817 819 822 824 826 828 830 833 836 838 840 842 844 845 846 847 848 850 852 855 859 861 863 864 865 865 865 865 865 866 867 868 869
753 755 757 760 762 764 765 767 769 771 773 775 776 779 781 784 786 788 790 792 794 795 796 798 799 800 802 803 805 805 806 807 809 810 811 810 809 808 808 808 809 809 810 811 811 812 811 811 812 813 813 814 814 815 818 820 822 824 827 829 832 834 837 839 841 842 843 845 846 848 850 852 856 859 861 862 863 863 864 864 864 865 866 866 867
748 750 753 756 758 760 762 763 765 767 769 771 773 775 778 780 782 785 787 789 790 792 793 794 795 797 799 801 802 804 805 806 807 808 809 810 809 808 807 806 806 807 808 809 809 810 810 810 812 813 813 813 811 810 812 814 817 820 823 826 828 831 834 836 839 840 841 843 844 846 847 849 853 857 859 860 861 861 862 863 863 864 864 864 865
743 746 749 752 754 756 758 760 761 764 765 767 769 771 774 776 779 781 784 785 787 789 790 791 793 794 796 798 800 801 803 804 805 806 807 807 807 807 806 805 805 805 805 806 807 808 808 808 809 810 811 812 810 807 806 808 812 815 819 823 826 829 832 834 836 837 838 841 842 843 845 847 851 853 856 857 857 858 860 861 861 862 862 862 863
738 742 745 748 750 752 754 757 759 760 761 763 765 768 770 773 776 778 780 782 784 786 787 789 790 792 794 795 796 798 799 800 801 803 804 805 805 805 804 804 804 803 803 804 805 805 806 806 806 806 807 808 809 807 804 804 808 812 815 819 823 826 829 832 834 835 836 839 840 841 843 845 848 850 852 853 854 856 857 858 858 858 859 860 860
734 737 739 742 745 748 751 753 755 756 757 760 762 765 767 770 773 775 777 779 781 783 784 786 787 789 791 792 793 795 796 797 798 800 801 801 802 803 803 803 803 802 802 802 802 803 803 804 803 803 803 803 804 805 804 803 804 807 812 816 819 823 827 829 832 833 835 837 838 840 842 843 845 847 848 849 851 853 854 855 855 855 856 857 857
727 730 733 737 741 744 747 748 750 752 754 757 759 762 765 767 769 772 774 776 777 779 781 783 785 786 788 790 791 792 793 794 796 797 798 799 800 801 801 802 801 801 801 801 800 800 800 800 800 800 800 800 800 802 803 804 804 806 810 813 816 819 823 826 829 831 833 834 836 838 840 842 843 845 846 847 849 851 852 852 852 852 853 854 854
720 723 727 732 736 739 742 744 747 749 752 754 757 759 761 764 766 768 770 773 775 777 778 780 782 784 786 787 788 790 791 792 794 795 796 797 797 798 799 800 799 799 799 799 799 798 795 795 796 797 798 798 799 799 800 802 804 806 809 812 814 816 819 822 825 829 831 832 834 836 838 839 841 842 843 844 846 848 849 849 849 850 851 851 852
716 720 724 728 732 735 739 741 744 746 749 751 754 756 758 761 763 765 767 770 772 774 776 778 780 782 783 785 786 787 788 790 791 792 793 794 794 796 797 798 797 797 796 797 796 794 793 793 794 795 795 796 797 798 798 800 801 804 808 812 814 816 817 820 823 826 829 831 833 834 835 837 839 840 841 841 842 844 845 846 846 847 848 849 849
714 717 721 724 728 732 735 738 741 743 746 748 751 753 755 757 760 762 764 767 770 772 774 776 778 779 781 782 783 784 786 787 789 790 791 791 792 793 794 795 795 794 794 794 794 792 791 792 792 791 792 793 794 795 797 798 799 802 805 808 811 814 815 817 820 824 827 829 831 832 832 834 836 838 839 839 840 841 842 842 844 845 845 846 845
712 714 718 721 725 728 731 734 737 740 743 745 747 750 752 754 756 759 761 764 767 769 772 774 775 777 779 780 781 782 783 784 786 787 788 789 789 790 791 792 793 792 792 792 791 790 790 791 790 789 789 790 791 792 793 795 797 799 802 805 807 810 812 815 818 821 824 826 828 829 830 832 834 835 837 838 839 839 839 839 841 842 842 842 842
709 712 715 719 722 725 728 731 734 737 739 742 744 747 749 752 754 756 759 762 765 767 769 771 773 774 776 777 778 779 780 782 783 784 785 786 786 787 788 788 789 790 790 790 789 789 790 791 790 789 789 789 789 789 790 792 794 797 799 802 804 806 809 813 816 818 821 824 826 827 829 831 832 833 835 837 838 838 838 838 839 840 840 840 840
707 710 713 716 719 722 724 728 730 733 736 739 741 744 746 749 751 754 757 760 762 764 766 768 770 772 773 774 775 776 778 779 780 781 782 783 783 784 785 786 786 787 787 788 787 787 788 789 788 789 789 788 788 788 789 790 792 794 797 799 802 804 807 810 813 816 819 821 823 825 827 829 830 831 833 835 836 837 837 838 839 839 839 839 840
704 707 710 713 716 718 721 724 727 730 733 735 738 741 744 746 749 752 755 757 759 761 763 765 767 769 770 771 772 773 775 776 777 778 779 780 781 781 782 783 784 784 785 786 785 785 785 786 786 787 787 787 787 787 788 789 791 793 795 797 800 802 805 808 811 813 816 818 820 823 825 827 829 830 832 833 834 835 835 836 836 837 837 838 839
700 703 706 709 712 715 718 721 723 726 729 732 735 738 740 743 746 749 752 754 756 758 760 762 764 765 767 768 769 770 772 773 774 775 776 777 778 778 779 780 781 782 783 784 784 783 784 784 785 785 785 785 786 786 787 788 789 791 793 796 798 800 802 804 807 810 813 815 818 820 823 825 827 829 830 831 832 832 833 833 833 834 835 835 836
696 700 703 706 709 712 715 718 721 723 726 728 731 734 737 740 743 746 749 751 753 755 757 759 761 763 764 765 766 767 769 771 771 772 773 774 775 776 777 778 779 780 782 783 782 782 782 783 784 784 784 785 784 785 785 786 787 789 792 794 796 798 800 802 804 807 811 813 816 819 821 823 825 826 828 829 830 830 830 831 831 832 832 833 833
693 696 699 703 706 709 712 715 718 720 722 725 728 731 734 737 739 743 745 748 750 752 754 756 758 760 761 762 763 765 767 768 768 770 771 772 773 774 775 776 777 778 780 780 781 781 781 781 781 782 783 784 783 784 785 785 787 789 790 792 794 796 799 801 803 806 809 812 814 817 819 820 822 824 825 827 827 828 828 829 829 830 830 830 831
689 693 696 699 703 706 709 712 714 716 719 721 724 727 730 733 736 739 742 745 747 749 751 753 755 757 758 759 761 762 764 765 766 767 768 769 771 772 773 774 775 776 777 778 778 779 779 778 779 781 782 783 783 783 784 785 786 788 790 791 793 796 798 800 802 805 808 810 812 814 816 818 820 821 823 824 825 825 826 826 827 828 828 828 828
686 689 693 696 699 702 705 707 710 712 715 717 720 724 727 730 733 737 739 742 744 746 748 750 752 754 755 757 758 760 761 762 763 765 766 767 768 769 771 772 773 774 775 775 776 777 777 776 778 780 781 782 782 782 783 784 785 787 789 791 793 795 798 800 802 804 806 808 810 812 814 816 818 819 820 821 822 822 823 824 825 825 825 826 826
683 686 689 692 695 698 701 703 706 708 711 714 717 720 724 727 731 734 737 739 741 744 746 748 750 751 753 754 756 757 758 759 760 762 763 765 766 767 768 769 771 772 772 772 774 774 774 775 778 779 780 781 782 782 782 784 785 786 788 790 792 795 797 799 801 802 804 806 808 810 812 814 815 817 818 818 819 820 820 821 822 822 823 823 823
680 683 686 689 692 695 697 700 703 705 708 711 714 718 721 725 728 731 734 737 739 741 743 745 747 748 750 751 753 754 755 757 758 759 761 762 763 764 766 768 769 770 770 770 771 772 772 774 777 778 780 781 782 782 782 783 785 786 787 789 791 793 795 797 798 800 802 804 806 808 810 811 813 814 815 816 817 817 818 819 819 819 819 819 820
677 679 682 685 689 692 694 697 700 702 705 708 711 715 718 722 726 729 731 734 736 739 740 742 744 745 747 748 750 752 753 754 755 757 758 760 761 762 764 766 767 768 768 768 768 769 771 773 775 777 778 780 780 781 782 783 784 785 786 787 789 791 793 795 797 799 800 802 804 806 808 809 810 812 813 813 814 815 815 816 816 816 816 816 817
675 678 681 683 686 689 692 695 697 700 703 705 708 712 715 719 723 726 729 731 734 736 738 740 741 743 744 746 747 749 750 752 753 754 756 758 759 760 762 763 764 765 766 765 765 767 770 772 774 776 777 778 779 780 781 781 781 782 784 786 788 790 792 794 796 797 799 801 802 804 805 807 808 809 810 811 812 812 812 812 813 813 813 813 813
674 676 679 681 683 686 689 692 695 697 700 703 706 709 713 717 720 723 726 729 731 733 735 737 739 740 742 743 745 747 748 750 751 752 754 756 757 758 760 761 762 763 763 763 762 764 767 770 772 774 775 776 776 777 778 778 780 782 784 786 788 789 791 793 795 796 797 799 800 802 803 805 806 807 808 808 808 809 809 809 810 810 809 809 809
672 674 677 679 681 684 686 689 692 695 698 701 704 707 711 714 717 720 723 726 728 730 732 734 736 738 740 741 743 745 746 747 749 750 752 753 755 757 758 759 760 760 761 761 761 762 764 767 770 771 773 773 773 775 776 778 780 782 783 785 786 788 790 791 793 794 795 797 798 800 802 803 804 805 805 805 806 806 807 807 807 807 807 807 807
670 672 675 677 679 682 684 687 690 693 696 699 702 705 709 712 715 718 721 723 725 728 729 731 733 735 737 739 740 742 744 745 747 748 750 751 753 755 756 757 758 759 759 759 759 759 761 764 766 768 769 771 772 773 775 777 779 781 782 784 785 786 788 790 791 793 794 795 797 798 800 801 802 802 803 803 804 804 805 805 805 805 805 805 805
669 671 673 675 678 680 682 685 688 691 694 697 700 703 706 709 713 716 718 720 722 725 727 729 731 733 735 737 738 740 741 743 744 746 748 749 751 753 754 755 756 757 758 758 758 759 759 761 763 764 766 768 770 771 773 775 777 779 780 782 783 785 786 788 791 793 794 795 796 797 798 799 800 801 802 802 803 803 803 804 804 804 804 804 804
667 669 672 674 676 678 681 684 686 689 692 695 698 701 704 707 711 714 716 718 720 722 724 726 728 730 732 734 735 737 739 740 741 743 745 747 749 750 751 752 754 755 756 757 757 758 759 760 761 762 764 766 768 770 772 773 775 776 778 779 781 783 785 787 790 792 793 794 795 796 797 798 799 800 801 801 802 802 802 802 802 802 802 803 803
665 668 670 672 674 677 679 682 685 687 690 693 696 699 702 706 709 711 713 715 717 719 721 724 726 728 730 732 733 735 736 737 739 741 742 744 746 748 749 750 751 752 754 755 756 757 758 759 760 761 763 765 766 768 771 772 773 775 776 778 780 781 784 786 788 790 791 793 794 795 796 797 798 799 800 800 801 801 801 801 801 802 802 802 802
664 666 668 670 673 675 677 680 683 685 688 691 694 697 700 704 707 709 711 712 714 717 719 721 723 726 728 729 731 732 733 735 737 738 740 742 744 745 747 748 749 750 752 753 754 756 757 758 759 761 762 763 765 767 769 770 772 774 775 777 779 781 783 785 787 788 790 791 793 794 795 797 798 798 798 799 799 800 800 800 801 801 801 801 801
663 665 667 669 671 673 675 678 680 683 686 689 692 696 699 702 704 706 708 709 712 714 716 719 721 723 726 727 729 730 731 733 735 736 738 740 742 743 745 746 747 748 749 751 752 754 756 757 759 760 761 762 763 765 767 768 770 771 773 775 778 779 781 784 786 788 789 790 791 793 794 795 796 797 797 798 798 799 799 800 800 800 800 800 800
661 663 665 668 670 672 674 676 678 681 683 686 690 694 697 699 701 703 705 707 709 711 714 716 719 721 724 725 726 728 729 730 732 734 736 738 739 741 742 744 746 746 747 748 750 752 754 756 757 758 760 761 762 764 765 766 768 769 771 773 775 778 780 782 784 786 788 789 790 792 793 794 794 795 796 797 797 798 798 799 799 799 800 800 800
659 661 663 666 668 670 673 675 677 679 682 685 689 692 695 697 699 701 703 704 706 709 711 714 716 719 721 723 724 726 727 729 731 732 734 736 737 739 741 742 744 744 745 746 748 750 752 753 755 756 758 760 761 763 765 766 767 768 770 772 774 776 778 780 782 785 787 788 788 790 791 792 793 794 794 795 796 798 798 799 799 799 799 800 800